TimeMDT,TemperatureF,Dew PointF,Humidity,Sea Level PressureIn,VisibilityMPH,Wind Direction,Wind SpeedMPH,Gust SpeedMPH,PrecipitationIn,Events,Conditions,WindDirDegrees,DateUTC
12:53 AM,41.0,14.0,33,29.96,10.0,South,21.9,28.8,N/A,,Clear,170,2013-04-03 06:53:00
1:53 AM,39.9,15.1,36,29.95,10.0,South,23.0,-,N/A,,Clear,180,2013-04-03 07:53:00
2:53 AM,39.0,16.0,39,29.92,10.0,South,19.6,-,N/A,,Clear,190,2013-04-03 08:53:00
3:53 AM,39.9,21.0,47,29.91,10.0,SSW,18.4,-,N/A,,Clear,210,2013-04-03 09:53:00
4:53 AM,44.1,25.0,47,29.89,10.0,SW,18.4,-,N/A,,Clear,220,2013-04-03 10:53:00
5:53 AM,43.0,24.1,47,29.91,10.0,SW,13.8,-,N/A,,Clear,230,2013-04-03 11:53:00
6:53 AM,44.1,23.0,43,29.93,10.0,Variable,3.5,-,N/A,,Clear,0,2013-04-03 12:53:00
7:53 AM,45.0,27.0,49,29.98,10.0,East,4.6,-,N/A,,Overcast,80,2013-04-03 13:53:00
8:53 AM,48.9,26.1,41,29.99,10.0,NE,4.6,-,N/A,,Clear,40,2013-04-03 14:53:00
9:53 AM,57.9,25.0,28,29.97,10.0,NNW,16.1,-,N/A,,Partly Cloudy,330,2013-04-03 15:53:00
10:53 AM,60.1,27.0,28,29.97,10.0,North,17.3,-,N/A,,Partly Cloudy,350,2013-04-03 16:53:00
11:53 AM,62.1,28.9,29,29.97,10.0,North,13.8,-,N/A,,Clear,350,2013-04-03 17:53:00
12:53 PM,64.0,27.0,25,29.96,10.0,NNW,17.3,23.0,N/A,,Clear,330,2013-04-03 18:53:00
1:53 PM,64.0,28.0,26,29.96,10.0,North,16.1,27.6,N/A,,Clear,350,2013-04-03 19:53:00
2:53 PM,64.9,26.1,23,29.95,10.0,NNW,19.6,24.2,N/A,,Clear,330,2013-04-03 20:53:00
3:53 PM,66.0,26.1,22,29.96,10.0,NNW,19.6,25.3,N/A,,Scattered Clouds,340,2013-04-03 21:53:00
4:53 PM,63.0,25.0,24,29.95,10.0,North,13.8,-,N/A,,Overcast,360,2013-04-03 22:53:00
5:53 PM,62.1,24.1,23,29.97,10.0,NNW,17.3,23.0,N/A,,Mostly Cloudy,340,2013-04-03 23:53:00
6:53 PM,59.0,27.0,29,29.99,10.0,North,15.0,-,N/A,,Overcast,10,2013-04-04 00:53:00
7:53 PM,52.0,30.9,45,30.04,10.0,NNE,15.0,-,N/A,,Clear,30,2013-04-04 01:53:00
8:53 PM,43.0,28.9,58,30.10,10.0,North,5.8,-,N/A,,Clear,360,2013-04-04 02:53:00
9:53 PM,43.0,32.0,65,30.09,10.0,NE,8.1,-,N/A,,Clear,40,2013-04-04 03:53:00
10:53 PM,37.0,30.0,76,30.11,10.0,North,4.6,-,N/A,,Clear,10,2013-04-04 04:53:00
11:53 PM,28.9,25.0,85,30.11,10.0,Calm,Calm,-,N/A,,Clear,0,2013-04-04 05:53:00